www.pogodaiklimat.ru

Погода и климат >> Архив погоды >> Бразилия >> Минас-Жерайс >> Сан-Ромао


ПОГОДА в Сан-Ромао

  • Прогноз погоды в Сан-Ромао
  • Монитор погоды в Сан-Ромао

АРХИВ ПОГОДЫ в Сан-Ромао

Время (UTC), дата Ветер
(напр.,м/с)
 
Видим.   Явления Облачность Т
(С)
Тd
(С)
f
(%)
Тe
(С)
Тes
(С)
Комфортность P
(гПа)
Po
(гПа)
Тmin
(С)
Tmax
(С)
R
(мм)
R24
(мм)
S
(см)
19 8.02 З 1
{3}
н/о н/о +29.0 +22.7 69 +38 +38 очень
душно
1007.9 953.5
20 8.02 ЮЗ 1
{2}
н/о н/о +29.1 +22.4 67 +38 +38 очень
душно
1007.9 953.5
21 8.02 В 1
{2}
н/о н/о +27.9 +23.3 76 +38 +38 очень
душно
1008.6 954.0
22 8.02 штиль 0
{5}
н/о н/о +24.9 +22.2 85 +32 +32 очень
душно
1008.8 953.6
23 8.02 штиль 0
{1}
н/о н/о +24.1 +22.3 90 +31 +31 очень
душно
1010.5 955.1
00 9.02 В 1
{2}
н/о н/о +24.2 +21.8 86 +31 +31 очень
душно
1011.6 956.2
01 9.02 штиль 0
{2}
н/о н/о +23.2 +21.5 90 +31 +31 очень
душно
1011.9 956.3
02 9.02 штиль 0
{1}
н/о н/о +22.7 +21.7 94 +30 +30 очень
душно
1012.7 956.9
03 9.02 штиль 0
{1}
н/о н/о +23.1 +22.1 94 +31 +31 очень
душно
1012.5 956.8
04 9.02 штиль 0
{1}
н/о н/о +23.2 +22.2 94 +32 +32 очень
душно
1011.7 956.1
05 9.02 штиль 0
{1}
н/о н/о +22.4 +21.7 96 +30 +30 очень
душно
1011.2 955.5
06 9.02 штиль 0
{1}
н/о н/о +22.6 +21.8 95 +30 +30 очень
душно
1011.1 955.4
07 9.02 штиль 0
{1}
н/о н/о +22.2 +21.4 95 +29 +29 очень
душно
1011.1 955.3
08 9.02 штиль 0
{1}
н/о н/о +21.9 +21.2 96 +28 +28 душно 1011.2 955.4
09 9.02 штиль 0
{1}
н/о н/о +21.8 +21.2 96 +28 +28 душно 1012.1 956.2
10 9.02 штиль 0
{1}
н/о н/о +22.9 +22.3 96 +31 +31 очень
душно
1012.9 957.2
11 9.02 СВ 1
{2}
н/о н/о +26.9 +22.3 76 +35 +35 очень
душно
1012.5 957.5
12 9.02 С 1
{3}
н/о н/о +27.8 +21.7 69 +36 +36 очень
душно
1012.8 957.9
13 9.02 СВ 2
{3}
н/о н/о +29.9 +22.9 66 +40 +40 очень
душно
1012.6 958.1
14 9.02 СВ 2
{4}
н/о н/о +32.4 +22.7 57 +42 +42 опасность
перегрева
1011.5 957.5
15 9.02 СВ 1
{4}
н/о н/о +32.3 +22.5 56 +42 +42 опасность
перегрева
1010.9 956.9
17 9.02 В 2
{3}
н/о н/о +29.2 +25.0 78 +42 +42 опасность
перегрева
1009.3 954.9 10
18 9.02 В 2
{4}
н/о н/о +32.4 +24.4 63 +45 +45 опасность
перегрева
1008.1 954.3
19 9.02 В 2
{5}
н/о н/о +30.3 +23.5 67 +41 +41 опасность
перегрева
1007.8 953.7 0.2
20 9.02 штиль 0
{3}
н/о н/о +28.0 +23.0 74 +37 +37 очень
душно
1008.0 953.4
21 9.02 штиль 0
{1}
н/о н/о +26.4 +23.4 84 +36 +36 очень
душно
1008.8 953.9
22 9.02 СВ 1
{1}
н/о н/о +25.4 +23.8 91 +35 +35 очень
душно
1010.1 955.0
23 9.02 штиль 0
{1}
н/о н/о +25.7 +23.4 87 +35 +35 очень
душно
1010.7 955.6
00 10.02 Ю 1
{1}
н/о н/о +25.6 +23.8 90 +35 +35 очень
душно
1011.6 956.4
01 10.02 СЗ 1
{3}
н/о н/о +25.8 +22.7 83 +34 +34 очень
душно
1012.2 957.0
02 10.02 З 1
{2}
н/о н/о +25.0 +22.7 87 +33 +33 очень
душно
1012.3 957.0
03 10.02 СВ 1
{3}
н/о н/о +24.7 +22.7 89 +33 +33 очень
душно
1012.4 957.0
04 10.02 С 1
{5}
н/о н/о +22.4 +21.7 96 +30 +30 очень
душно
1012.7 956.9 31
05 10.02 СЗ 1
{2}
н/о н/о +22.2 +21.6 96 +29 +29 очень
душно
1012.9 957.0 5
06 10.02 СЗ 1
{3}
н/о н/о +21.3 +20.4 95 +27 +27 душно 1012.3 956.3 1
07 10.02 З 1
{2}
н/о н/о +21.7 +20.9 95 +28 +28 душно 1012.3 956.4 0.4
08 10.02 ЮВ 1
{2}
н/о н/о +21.7 +21.0 96 +28 +28 душно 1012.4 956.5
09 10.02 штиль 0
{1}
н/о н/о +21.7 +21.0 96 +28 +28 душно 1013.4 957.4
10 10.02 штиль 0
{1}
н/о н/о +22.4 +21.9 97 +30 +30 очень
душно
1013.8 957.9
11 10.02 В 1
{1}
н/о н/о +23.7 +22.7 94 +31 +31 очень
душно
1014.2 958.5
12 10.02 штиль 0
{1}
н/о н/о +25.8 +22.7 83 +34 +34 очень
душно
1014.1 958.8
13 10.02 З 1
{2}
н/о н/о +27.1 +23.2 79 +36 +36 очень
душно
1013.9 958.9
14 10.02 ЮВ 1
{2}
н/о н/о +28.6 +22.6 70 +38 +38 очень
душно
1013.2 958.5
15 10.02 В 1
{2}
н/о н/о +31.5 +23.0 61 +42 +42 опасность
перегрева
1012.1 957.9
16 10.02 С 1
{2}
н/о н/о +29.8 +21.4 61 +38 +38 очень
душно
1011.3 956.9
17 10.02 З 1
{4}
н/о н/о +24.9 +22.7 88 +33 +33 очень
душно
1012.0 956.7 0.4
18 10.02 З 1
{2}
н/о н/о +25.7 +23.0 85 +34 +34 очень
душно
1011.1 956.0
19 10.02 С 1
{3}
н/о н/о +26.0 +21.1 74 +33 +33 очень
душно
1010.7 955.6
20 10.02 штиль 0
{2}
н/о н/о +26.2 +22.1 78 +34 +34 очень
душно
1010.2 955.2
21 10.02 штиль 0
{1}
н/о н/о +25.3 +23.0 87 +34 +34 очень
душно
1011.1 955.9
22 10.02 З 1
{1}
н/о н/о +24.7 +22.6 88 +32 +32 очень
душно
1012.1 956.7
23 10.02
{2}
н/о н/о +24.1 +22.3 90 1013.5 957.9
00 11.02 штиль 0
{1}
н/о н/о +22.9 +21.3 91 +30 +30 очень
душно
1014.9 959.0
01 11.02 З 1
{1}
н/о н/о +22.2 +21.2 94 +29 +29 очень
душно
1015.3 959.3 3
02 11.02 З 1
{2}
н/о н/о +22.2 +21.3 95 +29 +29 очень
душно
1015.1 959.1 0.6
03 11.02 штиль 0
{2}
н/о н/о +21.8 +21.1 96 +28 +28 душно 1014.9 958.8
04 11.02 штиль 0
{1}
н/о н/о +21.9 +21.2 96 +28 +28 душно 1014.3 958.3 0.2
05 11.02 штиль 0
{1}
н/о н/о +21.8 +21.2 96 +28 +28 душно 1014.5 958.5
06 11.02 ЮЗ 1
{1}
н/о н/о +22.0 +21.4 96 +29 +29 очень
душно
1014.3 958.3
07 11.02 ЮВ 1
{1}
н/о н/о +21.8 +21.2 96 +28 +28 душно 1014.2 958.2
08 11.02 ЮВ 1
{1}
н/о н/о +21.5 +20.9 96 +27 +27 душно 1014.9 958.8
09 11.02 штиль 0
{1}
н/о н/о +21.7 +21.2 97 +28 +28 душно 1015.2 959.1
10 11.02 ЮВ 1
{2}
н/о н/о +22.8 +22.2 96 +31 +31 очень
душно
1015.6 959.7
11 11.02 ЮВ 1
{2}
н/о н/о +24.8 +22.4 87 +32 +32 очень
душно
1015.8 960.2
12 11.02 ЮВ 1
{2}
н/о н/о +26.8 +22.2 76 +35 +35 очень
душно
1015.7 960.5
13 11.02 В 1
{3}
н/о н/о +29.4 +22.4 66 +38 +38 очень
душно
1015.2 960.5
14 11.02 В 1
{3}
н/о н/о +31.6 +22.7 59 +41 +41 опасность
перегрева
1014.3 960.0
15 11.02 С 1
{3}
н/о н/о +31.5 +21.5 55 +39 +39 очень
душно
1013.5 959.3
16 11.02 СВ 2
{3}
н/о н/о +32.6 +21.0 51 +40 +40 очень
душно
1012.4 958.4
17 11.02 С 2
{4}
н/о н/о +33.4 +20.8 48 +41 +41 опасность
перегрева
1011.4 957.6
18 11.02 В 1
{3}
н/о н/о +34.3 +20.5 45 +41 +41 опасность
перегрева
1010.3 956.7
19 11.02 С 1
{3}
н/о н/о +33.1 +18.0 41 +37 +37 очень
душно
1009.9 956.1
20 11.02 СВ 1
{3}
н/о н/о +32.9 +18.8 43 +38 +38 очень
душно
1009.4 955.6
21 11.02 штиль 0
{2}
н/о н/о +30.6 +20.6 55 +38 +38 очень
душно
1009.9 955.7
22 11.02 штиль 0
{1}
н/о н/о +26.1 +22.8 82 +35 +35 очень
душно
1011.2 956.1
23 11.02 штиль 0
{1}
н/о н/о +25.2 +23.0 88 +34 +34 очень
душно
1011.9 956.6
00 12.02 штиль 0
{1}
н/о н/о +23.4 +22.2 93 +32 +32 очень
душно
1012.7 957.1
01 12.02 штиль 0
{1}
н/о н/о +23.4 +22.2 93 +32 +32 очень
душно
1013.3 957.6
02 12.02 штиль 0
{1}
н/о н/о +22.4 +21.5 95 +30 +30 очень
душно
1013.6 957.7
03 12.02 штиль 0
{1}
н/о н/о +21.9 +21.0 95 +28 +28 душно 1013.2 957.3
04 12.02 Ю 1
{1}
н/о н/о +21.4 +20.7 96 +27 +27 душно 1013.0 957.0
05 12.02 Ю 1
{1}
н/о н/о +20.8 +19.8 94 +27 +27 душно 1012.8 956.7
06 12.02 штиль 0
{1}
н/о н/о +20.2 +19.5 96 +24 +24 комфорт 1013.2 956.9
07 12.02 штиль 0
{1}
н/о н/о +20.0 +19.4 96 +23 +23 комфорт 1013.8 957.5
08 12.02 штиль 0
{2}
н/о н/о +19.9 +19.3 96 +23 +23 комфорт 1014.4 958.0
09 12.02 СВ 1
{2}
н/о н/о +18.9 +18.1 95 +21 +21 комфорт 1015.0 958.4
10 12.02 штиль 0
{2}
н/о н/о +21.1 +20.3 95 +26 +26 душно 1015.7 959.5
11 12.02 ЮВ 1
{1}
н/о н/о +25.5 +20.1 72 +31 +31 очень
душно
1015.1 959.7
12 12.02 СВ 1
{2}
н/о н/о +28.4 +18.8 56 +34 +34 очень
душно
1015.1 960.2
13 12.02 С 1
{3}
н/о н/о +29.7 +19.2 53 +35 +35 очень
душно
1014.8 960.2
14 12.02 СЗ 1
{2}
н/о н/о +30.9 +19.9 52 +37 +37 очень
душно
1014.3 959.9
15 12.02 С 1
{3}
н/о н/о +32.5 +20.9 50 +40 +40 очень
душно
1013.4 959.3
16 12.02 С 1
{3}
н/о н/о +32.5 +20.2 48 +39 +39 очень
душно
1012.2 958.2
17 12.02 С 1
{3}
н/о н/о +32.9 +19.4 45 +38 +38 очень
душно
1011.0 957.1
18 12.02 С 1
{3}
н/о н/о +33.0 +17.5 40 +37 +37 очень
душно
1010.1 956.3
19 12.02 З 1
{2}
н/о н/о +33.7 +18.2 40 +38 +38 очень
душно
1009.2 955.6
20 12.02 З 1
{3}
н/о н/о +30.7 +20.0 53 +37 +37 очень
душно
1009.7 955.5
21 12.02 ЮЗ 1
{1}
н/о н/о +29.2 +22.2 66 +38 +38 очень
душно
1009.6 955.2
22 12.02 ЮЗ 1
{1}
н/о н/о +25.6 +21.6 79 +33 +33 очень
душно
1011.3 956.1
23 12.02 ЮЗ 1
{2}
н/о н/о +24.0 +21.2 84 +30 +30 очень
душно
1012.2 956.7
00 13.02 ЮЗ 1
{1}
н/о н/о +23.9 +21.8 88 +31 +31 очень
душно
1013.0 957.4
01 13.02 штиль 0
{1}
н/о н/о +22.5 +20.6 89 +29 +29 очень
душно
1013.8 957.9
02 13.02 Ю 1
{2}
н/о н/о +21.7 +20.5 93 +27 +27 душно 1013.8 957.8
03 13.02 штиль 0
{2}
н/о н/о +21.5 +20.0 91 +27 +27 душно 1013.2 957.2
04 13.02 штиль 0 н/о н/о +21.8 +21.0 95 +28 +28 душно 1012.6 956.7
05 13.02 штиль 0 н/о н/о +21.5 +20.6 95 +27 +27 душно 1011.9 956.0
06 13.02 штиль 0
{1}
н/о н/о +21.1 +20.2 95 +26 +26 душно 1012.1 956.1
07 13.02 штиль 0
{1}
н/о н/о +20.4 +19.6 95 +24 +24 комфорт 1012.4 956.2
08 13.02 штиль 0 н/о н/о +19.6 +18.9 96 +22 +22 комфорт 1013.1 956.7
09 13.02 ЮЗ 1
{2}
н/о н/о +20.2 +19.7 97 +25 +25 комфорт 1013.7 957.4
10 13.02 ЮЗ 1
{2}
н/о н/о +21.7 +20.8 95 +28 +28 душно 1013.7 957.7
11 13.02 штиль 0
{1}
н/о н/о +25.2 +19.7 72 +31 +31 очень
душно
1013.6 958.2
12 13.02 З 1
{2}
н/о н/о +27.8 +21.2 67 +35 +35 очень
душно
1013.3 958.4
13 13.02 Ю 1
{2}
н/о н/о +29.0 +20.8 61 +36 +36 очень
душно
1013.2 958.5
14 13.02 Ю 1
{2}
н/о н/о +31.3 +18.6 47 +36 +36 очень
душно
1012.2 958.0
15 13.02 В 1
{2}
н/о н/о +33.1 +18.5 42 +38 +38 очень
душно
1010.8 957.0
16 13.02 С 1
{2}
н/о н/о +34.7 +16.3 33 +37 +37 очень
душно
1009.2 955.7
17 13.02 Ю 1
{3}
н/о н/о +34.6 +16.0 33 +37 +37 очень
душно
1008.2 954.8
18 13.02 С 1
{2}
н/о н/о +35.1 +14.6 29 +36 +36 очень
жарко
1007.3 954.0
19 13.02 С 1
{3}
н/о н/о +34.6 +15.6 32 +37 +37 очень
душно
1006.9 953.5
20 13.02 С 1
{3}
н/о н/о +33.7 +17.4 38 +37 +37 очень
душно
1007.1 953.6
21 13.02 штиль 0
{2}
н/о н/о +28.6 +21.4 65 +36 +36 очень
душно
1008.7 954.2
22 13.02 штиль 0 н/о н/о +25.6 +22.0 81 +33 +33 очень
душно
1009.5 954.4
23 13.02 штиль 0 н/о н/о +23.5 +21.4 88 +30 +30 очень
душно
1010.7 955.2
00 14.02 штиль 0 н/о н/о +22.3 +20.9 92 +29 +29 очень
душно
1011.6 955.8
01 14.02 Ю 1
{1}
н/о н/о +22.0 +20.8 93 +28 +28 душно 1012.3 956.4
02 14.02 штиль 0
{1}
н/о н/о +21.7 +20.4 92 +27 +27 душно 1012.4 956.5
03 14.02 штиль 0
{1}
н/о н/о +20.8 +19.8 94 +25 +25 комфорт 1012.1 956.0
04 14.02 штиль 0
{2}
н/о н/о +21.1 +19.8 92 +26 +26 душно 1011.9 955.9
05 14.02 Ю 1
{2}
н/о н/о +21.3 +20.1 93 +26 +26 душно 1012.3 956.3
06 14.02 Ю 1
{2}
н/о н/о +21.4 +20.2 93 +27 +27 душно 1011.9 955.9
07 14.02 Ю 1
{2}
н/о н/о +21.6 +20.3 92 +27 +27 душно 1011.9 956.0
08 14.02 Ю 1
{2}
н/о н/о +21.3 +20.1 93 +26 +26 душно 1012.5 956.5
09 14.02 Ю 1
{2}
н/о н/о +21.0 +20.1 95 +27 +27 душно 1013.0 956.9
10 14.02 Ю 1
{2}
н/о н/о +22.5 +21.1 92 +30 +30 очень
душно
1013.4 957.6
11 14.02 ЮВ 1
{3}
н/о н/о +25.8 +21.2 76 +33 +33 очень
душно
1013.3 958.1
12 14.02 В 2
{3}
н/о н/о +28.8 +21.4 64 +36 +36 очень
душно
1013.3 958.6
13 14.02 В 2
{4}
н/о н/о +31.8 +21.6 55 +40 +40 очень
душно
1012.8 958.6
14 14.02 СВ 1
{4}
н/о н/о +33.4 +20.8 48 +41 +41 опасность
перегрева
1012.0 958.2
15 14.02 С 1
{3}
н/о н/о +34.0 +20.8 46 +41 +41 опасность
перегрева
1011.4 957.7
16 14.02 СВ 1
{3}
н/о н/о +34.5 +19.7 42 +40 +40 очень
душно
1010.4 956.8
17 14.02 С 1
{3}
н/о н/о +35.6 +17.8 35 +39 +39 очень
душно
1008.9 955.6
18 14.02 С 1
{2}
н/о н/о +35.4 +16.8 33 +38 +38 очень
душно
1008.1 954.8
19 14.02 СЗ 1
{2}
н/о н/о +35.4 +16.1 32 +38 +38 очень
душно
1007.6 954.3
20 14.02 ЮЗ 1
{2}
н/о н/о +34.6 +18.4 38 +39 +39 очень
душно
1007.6 954.2
21 14.02 штиль 0
{2}
н/о н/о +32.1 +21.9 55 +41 +41 опасность
перегрева
1008.4 954.5
22 14.02 штиль 0 н/о н/о +27.4 +22.6 75 +36 +36 очень
душно
1009.7 954.9
23 14.02 В 1
{2}
н/о н/о +24.7 +21.6 83 +32 +32 очень
душно
1010.9 955.6
00 15.02 ЮВ 1
{2}
н/о н/о +25.0 +21.1 79 +32 +32 очень
душно
1011.8 956.5
01 15.02 ЮВ 1
{2}
н/о н/о +24.1 +20.0 78 +30 +30 очень
душно
1012.3 956.8
02 15.02 ЮВ 1
{1}
н/о н/о +23.4 +20.4 83 +31 +31 очень
душно
1012.5 956.9
03 15.02 штиль 0
{1}
н/о н/о +23.5 +21.4 88 +30 +30 очень
душно
1012.2 956.6
04 15.02 штиль 0
{1}
н/о н/о +23.2 +20.8 86 +31 +31 очень
душно
1012.1 956.5
05 15.02 штиль 0
{3}
н/о н/о +22.1 +20.7 92 +28 +28 душно 1012.6 956.7
06 15.02 Ю 1
{2}
н/о н/о +23.1 +21.4 90 +31 +31 очень
душно
1012.5 956.8
07 15.02 З 1
{2}
н/о н/о +23.5 +21.2 87 +30 +30 очень
душно
1013.0 957.4
08 15.02 штиль 0
{2}
н/о н/о +22.7 +21.1 91 +30 +30 очень
душно
1013.4 957.6
09 15.02 штиль 0
{1}
н/о н/о +22.0 +21.0 94 +28 +28 душно 1013.9 957.9
10 15.02 З 1
{2}
н/о н/о +23.4 +21.2 87 +31 +31 очень
душно
1014.0 958.3
11 15.02 В 1
{2}
н/о н/о +26.1 +21.2 74 +33 +33 очень
душно
1014.0 958.8
12 15.02 В 1
{2}
н/о н/о +29.2 +21.2 62 +37 +37 очень
душно
1013.8 959.1
13 15.02 ЮВ 1
{2}
н/о н/о +28.2 +21.4 67 +36 +36 очень
душно
1013.8 959.0
14 15.02 ЮВ 1
{3}
н/о н/о +29.4 +21.2 61 +37 +37 очень
душно
1013.1 958.5
15 15.02 СВ 1
{3}
н/о н/о +31.4 +22.1 58 +40 +40 очень
душно
1012.2 958.0
17 15.02 В 1
{3}
н/о н/о +33.0 +21.6 51 +41 +41 опасность
перегрева
1009.3 955.5

 

Местоположение метеостанции Сан-Ромао (Минас-Жерайс, Бразилия): широта -16.37 долгота -45.12 высота над уровнем моря 462 м.

В архиве по умолчанию представлена погода в Сан-Ромао за последнюю неделю. Архивные данные за месяц целиком и за предыдущие месяцы, начиная с января 2011 года, Вы можете получить, выбрав интересующий диапазон дат из раскрывающегося списка и нажав кнопку "Ввод!".


*Определитесь, кто Вы:
робот инопланетянин человек

Внимание! Время в таблицах - всемирное. Для получения местного времени необходимо прибавить поправку, которая равна -3 ч.

Смотрите также архив погоды в соседних городах и на ближайших метеорологических станциях:

Погода в Пирапоре (Минас-Жерайс, Бразилия) (103 км)
Погода в Пирапоре (Минас-Жерайс, Бразилия) (108 км)
Погода в Аринусе (Минас-Жерайс, Бразилия) (112 км)
Погода в Шапада-Гауше (Минас-Жерайс, Бразилия) (130 км)
Погода в Жануарии (Минас-Жерайс, Бразилия) (132 км)
Погода в Монтис-Кларусе (Минас-Жерайс, Бразилия) (139 км)
Погода в Монтис-Кларусе (Минас-Жерайс, Бразилия) (140 км)
Погода в Буритисе (Минас-Жерайс, Бразилия) (169 км)
Погода в Мокамбинхо (Минас-Жерайс, Бразилия) (186 км)
Погода в Унаи (Минас-Жерайс, Бразилия) (189 км)

Пояснения к столбцам:

Ветер - указаны скорость ветра в м/с - средняя за 10 мин, порывы в срок и между сроками (в фигурных скобках) и направление, откуда дует ветер: С - северный, СВ - северо-восточный, В - восточный, ЮВ - юго-восточный, Ю - южный, ЮЗ - юго-западный, З - западный, СЗ - северо-западный.
Видимость - горизонтальная дальность видимости в метрах или километрах. При видимости от 1 до 10 км при отсутствии осадков обычно наблюдается дымка, при ухудшении видимости до 1 км и менее - туман. В сухую погоду видимость может ухудшаться дымом, пылью или мглою.
Явления - указаны атмосферные явления, наблюдавшиеся в срок или в последний час перед сроком; фигурными скобками обозначены явления, наблюдавшиеся между сроками (за 1-3 часа до срока); квадратными скобками обозначены град или гололедные отложения с указанием их диаметра в мм.
Облачность - указаны через наклонную черту общая и нижняя облачность в баллах и высота нижней границы облаков в метрах; квадратными скобками обозначены формы облаков: Ci - перистые, Cs - перисто-слоистые, Cc - перисто-кучевые, Ac - высококучевые, As - высокослоистые, Sc - слоисто-кучевые, Ns - слоисто-дождевые, Cu - кучевые, Cb - кучево-дождевые. Подробнее классификацию облаков см. в Атласе облаков (PDF).
T - Температура воздуха - температура, измеренная на высоте 2 м над землей.
Td - Температура точки росы - температура, при понижении до которой содержащийся в воздухе водяной пар достигнет насыщения.
f - Относительная влажность воздуха - влажноcть воздуха, измеренная на высоте 2 м над землей.
Te - Эффективная температура - температура, которую ощущает одетый по сезону человек в тени. Характеристика душности погоды. При расчете учитывается влияние влажности воздуха и скорости ветра на теплоощущения человека.
Tes - Эффективная температура на солнце - температура, которую ощущает человек, с поправкой на солнечный нагрев. Характеристика знойности погоды. Зависит от высоты солнца над горизонтом, облачности и скорости ветра. Ночью, в пасмурную погоду, а также при ветре 12 м/с и более поправка равна нулю.
P - Атмосферное давление - приведенное к уровню моря атмосферное давление.
Po - Атмосферное давление - измеренное на уровне метеостанции атмосферное давление.
Tmin - Минимальная температура - минимум температуры воздуха на высоте 2 м над землей.
Tmax - Максимальная температура - максимум температуры воздуха на высоте 2 м над землей.
R - Количество осадков - Количество выпавших осадков за период времени, мм. При наведении курсора мыши на число - период времени, за который выпало указанное количество осадков.
R24 - Количество осадков - Количество выпавших осадков за 24 часа, мм.
S - Снежный покров - Высота снежного покрова, см. При наведении курсора мыши на число - состояние снежного покрова и степень покрытия местности в баллах.